When you browse on this site, cookies collect data to enhance your experience and personalize the content and advertising you see.
Visit our Privacy Policy to learn more. By continuing to use the site, you agree to this use of cookies and data.
  • In Italy
  • List of Countries
  • For 7 days
  • Water Temperature
  • Satellite Maps
  • Weather Map
  • Weather Widgets
  • user-avatar
    Login

    Hourly Weather Konstantyna

    Today, 18 January, Friday

    Time Temperature Precipitation Wind Pressure Humidity
    00:00 +6°C° 0 mm 1 mps 708 mmHg 79%
    01:00 +6°C° 0 mm 1 mps 708 mmHg 78%
    02:00 +6°C° 0 mm 1 mps 708 mmHg 77%
    03:00 +6°C° 0 mm 1 mps 707 mmHg 75%
    04:00 +5°C° 0 mm 2 mps 707 mmHg 75%
    05:00 +4°C° 0 mm 2 mps 707 mmHg 75%
    06:00 +4°C° 0 mm 2 mps 707 mmHg 75%
    07:00 +6°C° 0 mm 2 mps 708 mmHg 70%
    08:00 +7°C° 0 mm 2 mps 708 mmHg 65%
    09:00 +9°C° 0 mm 2 mps 709 mmHg 60%
    10:00 +10°C° 0 mm 2 mps 709 mmHg 57%
    11:00 +12°C° 0 mm 2 mps 709 mmHg 53%
    12:00 +13°C° 0 mm 2 mps 709 mmHg 50%
    13:00 +13°C° 0 mm 2 mps 709 mmHg 52%
    14:00 +13°C° 0 mm 2 mps 708 mmHg 54%
    15:00 +13°C° 0 mm 2 mps 708 mmHg 56%
    16:00 +10°C° 0.2 mm 2 mps 708 mmHg 66%
    17:00 +9°C° 0.2 mm 2 mps 708 mmHg 77%
    18:00 +8°C° 0.2 mm 1 mps 708 mmHg 87%
    19:00 +8°C° 0.1 mm 1 mps 708 mmHg 90%
    20:00 +7°C° 0.1 mm 1 mps 709 mmHg 93%
    21:00 +6°C° 0.1 mm 0 mps 709 mmHg 96%
    22:00 +6°C° 0.1 mm 0 mps 709 mmHg 96%
    23:00 +6°C° 0.1 mm 0 mps 709 mmHg 96%

    Tomorrow, 19 January, Saturday

    Time Temperature Precipitation Wind Pressure Humidity
    00:00 +6°C° 0.1 mm 0 mps 708 mmHg 97%
    01:00 +5°C° 0 mm 0 mps 708 mmHg 96%
    02:00 +5°C° 0 mm 0 mps 708 mmHg 96%
    03:00 +5°C° 0 mm 0 mps 708 mmHg 95%
    04:00 +4°C° 0 mm 0 mps 708 mmHg 95%
    05:00 +4°C° 0 mm 0 mps 708 mmHg 94%
    06:00 +4°C° 0 mm 0 mps 708 mmHg 93%
    07:00 +6°C° 0 mm 1 mps 708 mmHg 88%
    08:00 +8°C° 0 mm 1 mps 709 mmHg 82%
    09:00 +9°C° 0 mm 1 mps 709 mmHg 77%
    10:00 +10°C° 0.1 mm 1 mps 709 mmHg 71%
    11:00 +11°C° 0.1 mm 1 mps 709 mmHg 66%
    12:00 +12°C° 0.1 mm 2 mps 708 mmHg 60%
    13:00 +10°C° 0.6 mm 2 mps 708 mmHg 62%
    14:00 +10°C° 0.6 mm 2 mps 708 mmHg 64%
    15:00 +10°C° 0.6 mm 3 mps 708 mmHg 66%
    16:00 +9°C° 0.2 mm 2 mps 708 mmHg 73%
    17:00 +8°C° 0.2 mm 1 mps 708 mmHg 80%
    18:00 +7°C° 0.2 mm 1 mps 708 mmHg 88%
    19:00 +6°C° 0 mm 0 mps 708 mmHg 89%
    20:00 +5°C° 0 mm 0 mps 708 mmHg 90%
    21:00 +5°C° 0 mm 0 mps 708 mmHg 91%
    22:00 +6°C° 0 mm 1 mps 708 mmHg 90%
    23:00 +5°C° 0 mm 1 mps 708 mmHg 90%

    Day after tomorrow, 20 January, Sunday

    Time Temperature Precipitation Wind Pressure Humidity
    00:00 +5°C° 0 mm 1 mps 708 mmHg 89%
    01:00 +5°C° 0 mm 1 mps 707 mmHg 87%
    02:00 +5°C° 0 mm 1 mps 707 mmHg 86%
    03:00 +4°C° 0 mm 2 mps 707 mmHg 84%
    04:00 +4°C° 0 mm 2 mps 707 mmHg 81%
    05:00 +4°C° 0 mm 2 mps 707 mmHg 78%
    06:00 +4°C° 0 mm 2 mps 707 mmHg 75%
    07:00 +6°C° 0 mm 2 mps 707 mmHg 70%
    08:00 +7°C° 0 mm 2 mps 707 mmHg 66%
    09:00 +8°C° 0 mm 3 mps 707 mmHg 61%
    10:00 +10°C° 0 mm 3 mps 707 mmHg 60%
    11:00 +11°C° 0 mm 4 mps 706 mmHg 58%
    12:00 +13°C° 0 mm 5 mps 706 mmHg 56%
    13:00 +12°C° 0.7 mm 4 mps 705 mmHg 64%
    14:00 +10°C° 0.7 mm 4 mps 705 mmHg 72%
    15:00 +9°C° 0.7 mm 3 mps 704 mmHg 80%
    16:00 +9°C° 0.6 mm 3 mps 704 mmHg 81%
    17:00 +9°C° 0.6 mm 3 mps 704 mmHg 82%
    18:00 +8°C° 0.6 mm 2 mps 705 mmHg 83%
    19:00 +8°C° 0 mm 2 mps 705 mmHg 84%
    20:00 +7°C° 0 mm 2 mps 705 mmHg 85%
    21:00 +7°C° 0 mm 2 mps 705 mmHg 85%
    22:00 +7°C° 0.1 mm 2 mps 705 mmHg 86%
    23:00 +6°C° 0.1 mm 2 mps 705 mmHg 87%

    21 January, Monday

    Time Temperature Precipitation Wind Pressure Humidity
    00:00 +6°C° 0.1 mm 2 mps 705 mmHg 87%
    01:00 +6°C° 1.2 mm 2 mps 704 mmHg 90%
    02:00 +6°C° 1.2 mm 2 mps 704 mmHg 92%
    03:00 +7°C° 1.2 mm 1 mps 704 mmHg 95%
    04:00 +6°C° 0.1 mm 2 mps 704 mmHg 95%
    05:00 +6°C° 0.1 mm 2 mps 705 mmHg 95%
    06:00 +7°C° 0.1 mm 2 mps 705 mmHg 95%
    07:00 +7°C° 0 mm 3 mps 706 mmHg 91%
    08:00 +6°C° 0 mm 4 mps 706 mmHg 87%
    09:00 +7°C° 0 mm 5 mps 707 mmHg 82%
    10:00 +7°C° 0.1 mm 5 mps 707 mmHg 80%
    11:00 +7°C° 0.1 mm 5 mps 707 mmHg 77%
    12:00 +8°C° 0.1 mm 6 mps 707 mmHg 74%
    13:00 +7°C° 0.1 mm 5 mps 707 mmHg 75%
    14:00 +7°C° 0.1 mm 5 mps 707 mmHg 76%
    15:00 +7°C° 0.1 mm 5 mps 707 mmHg 77%
    16:00 +6°C° 0 mm 4 mps 708 mmHg 81%
    17:00 +5°C° 0 mm 3 mps 708 mmHg 85%
    18:00 +5°C° 0 mm 2 mps 708 mmHg 90%
    19:00 +6°C° 0 mm 1 mps 708 mmHg 90%
    20:00 +5°C° 0 mm 1 mps 709 mmHg 91%
    21:00 +5°C° 0 mm 1 mps 709 mmHg 91%
    22:00 +5°C° 0 mm 1 mps 709 mmHg 91%
    23:00 +4°C° 0 mm 1 mps 709 mmHg 91%

    22 January, Tuesday

    Time Temperature Precipitation Wind Pressure Humidity
    00:00 +4°C° 0 mm 1 mps 709 mmHg 91%
    01:00 +4°C° 0 mm 1 mps 709 mmHg 91%
    02:00 +4°C° 0 mm 1 mps 708 mmHg 91%
    03:00 +4°C° 0 mm 1 mps 708 mmHg 91%
    04:00 +3°C° 0 mm 1 mps 708 mmHg 91%
    05:00 +3°C° 0 mm 1 mps 708 mmHg 90%
    06:00 +3°C° 0 mm 1 mps 708 mmHg 90%
    07:00 +5°C° 0 mm 1 mps 708 mmHg 84%
    08:00 +6°C° 0 mm 1 mps 708 mmHg 78%
    09:00 +6°C° 0 mm 2 mps 709 mmHg 73%
    10:00 +7°C° 0.2 mm 2 mps 708 mmHg 72%
    11:00 +7°C° 0.2 mm 2 mps 708 mmHg 71%
    12:00 +8°C° 0.2 mm 3 mps 708 mmHg 70%
    13:00 +8°C° 0.4 mm 3 mps 707 mmHg 70%
    14:00 +8°C° 0.4 mm 3 mps 706 mmHg 69%
    15:00 +8°C° 0.4 mm 2 mps 706 mmHg 69%
    16:00 +6°C° 0.1 mm 2 mps 705 mmHg 75%
    17:00 +6°C° 0.1 mm 1 mps 705 mmHg 82%
    18:00 +4°C° 0.1 mm 0 mps 705 mmHg 88%
    19:00 +5°C° 0 mm 1 mps 704 mmHg 87%
    20:00 +4°C° 0 mm 2 mps 704 mmHg 85%
    21:00 +4°C° 0 mm 2 mps 704 mmHg 84%
    22:00 +3°C° 0 mm 3 mps 703 mmHg 81%
    23:00 +3°C° 0 mm 4 mps 703 mmHg 78%

    23 January, Wednesday

    Time Temperature Precipitation Wind Pressure Humidity
    00:00 +3°C° 0 mm 4 mps 702 mmHg 76%
    01:00 +2°C° 0 mm 5 mps 701 mmHg 76%
    02:00 +2°C° 0 mm 5 mps 700 mmHg 76%
    03:00 +2°C° 0 mm 5 mps 700 mmHg 77%
    04:00 +3°C° 0.2 mm 4 mps 699 mmHg 79%
    05:00 +3°C° 0.2 mm 4 mps 699 mmHg 82%
    06:00 +3°C° 0.2 mm 3 mps 699 mmHg 84%
    07:00 +3°C° 0.2 mm 4 mps 699 mmHg 80%
    08:00 +3°C° 0.2 mm 5 mps 699 mmHg 76%
    09:00 +4°C° 0.2 mm 6 mps 700 mmHg 72%
    10:00 +5°C° 0 mm 7 mps 699 mmHg 67%
    11:00 +6°C° 0 mm 8 mps 699 mmHg 62%
    12:00 +7°C° 0 mm 9 mps 698 mmHg 57%
    13:00 +7°C° 0 mm 9 mps 697 mmHg 59%
    14:00 +8°C° 0 mm 10 mps 697 mmHg 61%
    15:00 +8°C° 0 mm 10 mps 696 mmHg 62%
    16:00 +7°C° 0 mm 9 mps 696 mmHg 67%
    17:00 +5°C° 0 mm 7 mps 695 mmHg 72%
    18:00 +4°C° 0 mm 6 mps 695 mmHg 76%
    19:00 +4°C° 0 mm 7 mps 695 mmHg 76%
    20:00 +4°C° 0 mm 7 mps 694 mmHg 76%
    21:00 +4°C° 0 mm 8 mps 694 mmHg 76%
    22:00 +4°C° 0.2 mm 7 mps 694 mmHg 77%
    23:00 +4°C° 0.2 mm 7 mps 694 mmHg 79%
    Show more